AGROMETEOROLOŠKI PORTAL

Vinorodna pokrajina

Temelj dobrega kmetovanja.

Pregled podatkov za lokacijo Vidonci, meteorološka postaja 513658

Pregled senzorjev na lokaciji

ID Ime Zadnja
vrednost
Datum in čas
meritve
(lokalni čas)
Tip
senzorja
5901 Omočenost lista (1,5 m) (U) 0 U 22.2.2024 06:30 A730WET
5900 Padavine (mm) 0 mm 22.2.2024 06:30 Generic 0.2 mm
5903 Relativna zračna vlaga (2 m) (%RH) 78 %RH 22.2.2024 06:30 50YA
5902 Temperatura (2 m) (°C) 5,8 °C 22.2.2024 06:30 50YA

Pregled podatkov zadnjih 24 ur

Zap.
št.
Datum in čas
(lokalni čas)
Vidonci
Omočenost
lista
(1,5
m)
Padavine Relativna
zračna
vlaga
(2
m)
Temperatura
(2
m)
1 22.2.2024 06:30 0 0 77,8 5,8
2 22.2.2024 06:00 0 0 77,3 5,8
3 22.2.2024 05:30 0 0 76,7 5,8
4 22.2.2024 05:00 0 0 77 5,5
5 22.2.2024 04:30 0 0 76,6 5,3
6 22.2.2024 04:00 0 0 78 5
7 22.2.2024 03:30 0 0 77,1 5
8 22.2.2024 03:00 0 0 78,1 4,8
9 22.2.2024 02:30 0 0 76,1 5,2
10 22.2.2024 02:00 0 0 74,4 5,5
11 22.2.2024 01:30 0 0 72,6 6
12 22.2.2024 01:00 0 0 73 5,8
13 22.2.2024 00:30 0 0 71,4 6,2
14 22.2.2024 00:00 0 0 71,4 6,4
15 21.2.2024 23:30 0 0 69,1 6,9
16 21.2.2024 23:00 0 0 67,4 7,4
17 21.2.2024 22:30 0 0 67,3 7,5
18 21.2.2024 22:00 0 0 66,3 7,8
19 21.2.2024 21:30 0 0 65,1 8,2
20 21.2.2024 21:00 0 0 63,8 8,5
21 21.2.2024 20:30 0 0 62 8,9
22 21.2.2024 20:00 0 0 59,6 9,5
23 21.2.2024 19:30 0 0 56,6 10,1
24 21.2.2024 19:00 0 0 55,3 10,4
25 21.2.2024 18:30 0 0 54,9 10,5
26 21.2.2024 18:00 0 0 53,8 10,8
27 21.2.2024 17:30 0 0 52,4 11,2
28 21.2.2024 17:00 0 0 51,2 11,5
29 21.2.2024 16:30 0 0 49,3 11,8
30 21.2.2024 16:00 0 0 47 12,3
31 21.2.2024 15:30 0 0 46,1 12,3
32 21.2.2024 15:00 0 0 45,1 12,7
33 21.2.2024 14:30 0 0 46,1 12,6
34 21.2.2024 14:00 0 0 46,2 12,4
35 21.2.2024 13:30 0 0 47,1 11,9
36 21.2.2024 13:00 0 0 45,6 11,9
37 21.2.2024 12:30 0 0 42,8 12,9
38 21.2.2024 12:00 0 0 45,6 12,9
39 21.2.2024 11:30 0 0 48,2 11,7
40 21.2.2024 11:00 0 0 51,7 10,7
41 21.2.2024 10:30 0 0 54,2 10,7
42 21.2.2024 10:00 0 0 56,6 9,2
43 21.2.2024 09:30 0 0 58,6 7,9
44 21.2.2024 09:00 0 0 62,9 6,6
45 21.2.2024 08:30 0 0 66,3 5,1
46 21.2.2024 08:00 0 0 66,6 4,8
47 21.2.2024 07:30 0 0 69 4,4
48 21.2.2024 07:00 0 0 71,4 4